EW6999 Weather Reports


Display with metric or nautical units.
time (UTC)temp
F
wind
direction
speed
MPH
gust
MPH
rain 1hr
in
rain 24hr
in
rain mn
in
humidity
%
barometer
mb
20260503203333 59 281 1.0 9.0 0.00 0.00 0.00 30 1008.7
20260503201826 59 356 2.0 15.0 0.00 0.00 0.00 31 1008.9
20260503200342 58 297 4.0 11.0 0.00 0.00 0.00 31 1008.9
20260503194832 58 248 2.0 12.0 0.00 0.00 0.00 32 1009.1
20260503193329 59 105 2.0 7.0 0.00 0.00 0.00 34 1009.2
20260503191842 58 236 1.0 11.0 0.00 0.00 0.00 33 1009.4
20260503190333 58 226 1.0 9.0 0.00 0.00 0.00 36 1009.5
20260503184829 58 276 2.0 8.0 0.00 0.00 0.00 36 1009.7
20260503183400 57 349 3.0 10.0 0.00 0.00 0.00 35 1010.0
20260503181834 56 260 2.0 5.0 0.00 0.00 0.00 39 1010.0
20260503180327 54 284 1.0 8.0 0.00 0.00 0.00 39 1010.0
20260503174843 55 294 3.0 9.0 0.00 0.00 0.00 38 1010.1
20260503173334 56 287 1.0 5.0 0.00 0.00 0.00 40 1010.2
20260503171825 55 238 1.0 7.0 0.00 0.00 0.00 39 1010.1
20260503170342 54 62 3.0 8.0 0.00 0.00 0.00 40 1010.1
20260503150328 53 309 1.0 8.0 0.00 0.00 0.00 41 1010.7
20260503130325 50 253 1.0 9.0 0.00 0.00 0.00 54 1010.7
20260503110356 45 292 1.0 7.0 0.00 0.00 0.00 57 1010.0
20260503090339 47 257 2.0 4.0 0.00 0.00 0.00 54 1008.5
20260503080353 48 311 0.0 6.0 0.00 0.00 0.00 50 1008.5
20260503071831 49 6 1.0 6.0 0.00 0.00 0.00 48 1008.4
20260503070344 49 295 0.0 3.0 0.00 0.00 0.00 48 1008.4
20260503060341 50 285 3.0 6.0 0.00 0.00 0.00 47 1008.6
20260503054831 51 13 1.0 5.0 0.00 0.00 0.00 46 1008.8
20260503053327 51 300 1.0 10.0 0.00 0.00 0.00 46 1008.7
20260503051900 51 297 2.0 7.0 0.00 0.00 0.00 45 1008.8
20260503050333 51 278 1.0 8.0 0.00 0.00 0.00 44 1009.0
20260503044905 52 307 1.0 3.0 0.00 0.00 0.00 45 1009.2
20260503043336 52 325 2.0 5.0 0.00 0.00 0.00 44 1009.3
20260503041830 52 290 2.0 4.0 0.00 0.00 0.00 43 1009.2
20260503040401 52 27 1.0 6.0 0.00 0.00 0.00 43 1009.2
20260503034836 53 41 2.0 6.0 0.00 0.00 0.00 43 1009.2
20260503033327 53 310 1.0 6.0 0.00 0.00 0.00 44 1009.1
20260503031841 53 273 2.0 8.0 0.00 0.00 0.00 42 1009.1
20260503030337 53 349 1.0 5.0 0.00 0.00 0.00 42 1009.1
20260503024850 54 5 0.0 2.0 0.00 0.00 0.00 42 1009.1
20260503023325 54 35 0.0 3.0 0.00 0.00 0.00 43 1009.2
20260503021857 54 288 1.0 3.0 0.00 0.00 0.00 42 1009.0
20260503020348 54 291 0.0 2.0 0.00 0.00 0.00 44 1009.1
20260503014903 54 301 1.0 3.0 0.00 0.00 0.00 42 1009.1
20260503013334 54 319 0.0 3.0 0.00 0.00 0.00 42 1009.2
20260503011832 55 308 0.0 4.0 0.00 0.00 0.00 41 1009.1
20260503010344 54 278 1.0 4.0 0.00 0.00 0.00 42 1008.9
20260503004837 54 299 0.0 0.0 0.00 0.00 0.00 46 1008.7
20260503003333 54 299 0.0 0.0 0.00 0.00 0.00 45 1008.5
20260503001826 55 299 0.0 0.0 0.00 0.00 0.00 43 1008.4
20260503000342 56 299 0.0 0.0 0.00 0.00 0.00 41 1008.4
20260502234833 57 321 0.0 2.0 0.00 0.00 0.00 41 1008.3
20260502233329 57 304 0.0 2.0 0.00 0.00 0.00 41 1008.4
20260502231841 58 10 0.0 2.0 0.00 0.00 0.00 40 1008.3
20260502230352 58 351 1.0 2.0 0.00 0.00 0.00 40 1008.3
20260502224827 59 281 1.0 5.0 0.00 0.00 0.00 38 1008.2
20260502223341 60 151 0.0 1.0 0.00 0.00 0.00 38 1008.0
20260502221857 60 319 0.0 0.0 0.00 0.00 0.00 38 1008.0
20260502220328 59 283 0.0 1.0 0.00 0.00 0.00 39 1008.2
20260502214823 60 290 0.0 4.0 0.00 0.00 0.00 38 1008.2
20260502213356 61 292 1.0 4.0 0.00 0.00 0.00 37 1008.2
20260502211826 61 330 1.0 5.0 0.00 0.00 0.00 39 1007.9
20260502210343 60 278 1.0 4.0 0.00 0.00 0.00 39 1007.7
20260502204835 61 98 1.0 8.0 0.00 0.00 0.00 38 1007.6